Weather History for Montgomery, NY

Change the Weather History Date:

Thursday, January 2, 2014

  Actual Average (KPOU) Record (KPOU)
Temperature  
Mean Temperature 14 °F 26 °F  
Max Temperature 21 °F 36 °F 56 °F (1979)
Min Temperature 8 °F 17 °F -15 °F (1968)
Degree Days  
Heating Degree Days 50 39  
Month to date heating degree days 78  
Since 1 July heating degree days 2407  
Cooling Degree Days 0 0  
Month to date cooling degree days 0  
Year to date cooling degree days 0  
Moisture  
Dew Point 9 °F    
Average Humidity 80    
Maximum Humidity 85    
Minimum Humidity 73    
Precipitation  
Precipitation 0.13 in 0.11 in 1.27 in (1987)
Month to date precipitation 0.21  
Year to date precipitation 0.21  
Sea Level Pressure  
Sea Level Pressure 29.98 in    
Wind  
Wind Speed 13 mph (NE)    
Max Wind Speed 18 mph    
Max Gust Speed 26 mph    
Visibility 2 miles    
Events Snow    
T = Trace of Precipitation, MM = Missing Value Source: NWS Daily Summary

Daily Weather History Graph

Daily Weather History Graph

Search for Another Location

Airport:

Trip Planner

Search our weather history database for the weather conditions in past years. The results will help you decide how hot, cold, wet, or windy it might be!

Date:

Astronomy

Jan. 02, 2014 Rise Set
Actual Time 7:23 AM EST 4:38 PM EST
Civil Twilight 6:52 AM EST 5:10 PM EST
Nautical Twilight 6:17 AM EST 5:44 PM EST
Astronomical Twilight 5:44 AM EST 6:18 PM EST
Moon 8:01 AM EST (1/2) 6:34 PM EST (1/2)
Length of Visible Light 10h 17m
Length of Day
9h 15m
New Moon, 2% of the Moon is Illuminated
Jan 2
New Moon
Jan 7
First Quarter
Jan 15
Full
Jan 24
Last Quarter
Jan 30
New

Hourly Weather History & Observations

Time (EST) Temp. Windchill Dew Point Humidity Pressure Visibility Wind Dir Wind Speed Gust Speed Precip Events Conditions
12:54 AM 21.9 °F 11.7 °F 17.1 °F 82% 30.26 in 10.0 mi NNE 9.2 mph - N/A   Overcast
1:54 AM 21.9 °F 11.7 °F 16.0 °F 78% 30.25 in 10.0 mi NNE 9.2 mph - N/A   Overcast
2:06 AM 21.0 °F 11.4 °F 16.0 °F 81% 30.23 in 10.0 mi NNE 8.1 mph - N/A   Overcast
2:54 AM 21.0 °F 8.6 °F 16.0 °F 81% 30.24 in 10.0 mi NE 12.7 mph - N/A   Overcast
3:54 AM 19.9 °F 9.3 °F 15.1 °F 81% 30.21 in 10.0 mi NE 9.2 mph - N/A   Overcast
4:31 AM 19.9 °F 7.3 °F 15.1 °F 81% 30.18 in 2.0 mi NNE 12.7 mph - 0.00 in Snow Light Snow
4:43 AM 19.9 °F 7.3 °F 15.1 °F 81% 30.17 in 5.0 mi NE 12.7 mph - 0.00 in Snow Light Snow
4:54 AM 19.9 °F 6.7 °F 15.1 °F 81% 30.18 in 9.0 mi NE 13.8 mph - 0.00 in   Overcast
5:54 AM 19.9 °F 6.7 °F 15.1 °F 81% 30.18 in 8.0 mi NNE 13.8 mph - 0.00 in Snow Light Snow
6:38 AM 19.0 °F 6.8 °F 15.1 °F 85% 30.15 in 2.0 mi NNE 11.5 mph - 0.00 in Snow Light Snow
6:54 AM 19.0 °F 6.1 °F 15.1 °F 85% 30.17 in 3.0 mi NNE 12.7 mph - 0.01 in Snow Light Snow
7:54 AM 17.1 °F 3.6 °F 12.0 °F 81% 30.16 in 5.0 mi NNE 12.7 mph - 0.00 in Snow Light Snow
8:37 AM 16.0 °F 1.1 °F 10.9 °F 81% 30.14 in 2.5 mi NNE 15.0 mph - 0.00 in Snow Light Snow
8:45 AM 16.0 °F 2.3 °F 10.9 °F 81% 30.13 in 4.0 mi NNE 12.7 mph - 0.00 in Snow Light Snow
8:54 AM 16.0 °F 3.6 °F 10.9 °F 81% 30.15 in 5.0 mi NNE 10.4 mph - 0.00 in   Haze
9:07 AM 16.0 °F 1.7 °F 10.9 °F 81% 30.14 in 2.0 mi NNE 13.8 mph - 0.00 in Snow Light Snow
9:54 AM 16.0 °F 0.6 °F 10.9 °F 81% 30.15 in 2.0 mi NNE 16.1 mph 23.0 mph 0.00 in Snow Light Snow
10:54 AM 16.0 °F 0.1 °F 10.0 °F 77% 30.09 in 1.8 mi NE 17.3 mph 21.9 mph 0.00 in Snow Light Snow
10:58 AM 16.0 °F 1.7 °F 10.0 °F 77% 30.07 in 2.0 mi NNE 13.8 mph - 0.00 in Snow Light Snow
11:18 AM 16.0 °F 0.6 °F 10.0 °F 77% 30.06 in 1.5 mi NE 16.1 mph - 0.00 in Snow Light Snow
11:37 AM 15.1 °F 0.5 °F 9.0 °F 77% 30.04 in 1.8 mi NE 13.8 mph - 0.00 in Snow Light Snow
11:49 AM 15.8 °F 0.9 °F 8.6 °F 73% 30.04 in 2.0 mi NE 15.0 mph - 0.00 in Snow Light Snow
11:54 AM 15.1 °F -1.1 °F 9.0 °F 77% 30.04 in 2.5 mi NE 17.3 mph - 0.00 in Snow Light Snow
12:10 PM 15.1 °F -0.1 °F 9.0 °F 77% 30.02 in 1.2 mi NE 15.0 mph - 0.00 in Snow Light Snow
12:31 PM 15.1 °F 2.5 °F 9.0 °F 77% 30.01 in 1.2 mi NNE 10.4 mph - 0.00 in Snow Light Snow
12:38 PM 15.1 °F 1.1 °F 9.0 °F 77% 30.01 in 0.8 mi NE 12.7 mph - 0.00 in Snow Light Snow
12:54 PM 15.1 °F -0.6 °F 9.0 °F 77% 30.01 in 1.0 mi NE 16.1 mph - 0.00 in Snow Light Snow
1:01 PM 15.1 °F -1.1 °F 9.0 °F 77% 29.99 in 1.2 mi NE 17.3 mph 21.9 mph 0.00 in Snow Light Snow
1:10 PM 15.1 °F -1.1 °F 9.0 °F 77% 29.97 in 1.0 mi NE 17.3 mph 21.9 mph 0.00 in Snow Light Snow
1:19 PM 15.1 °F 1.8 °F 10.0 °F 80% 29.97 in 0.8 mi NE 11.5 mph - 0.00 in Snow Light Snow
1:41 PM 15.1 °F 2.5 °F 10.0 °F 80% 29.95 in 1.0 mi NE 10.4 mph - 0.00 in Snow Light Snow
1:54 PM 15.1 °F 1.8 °F 10.0 °F 80% 29.96 in 1.2 mi NE 11.5 mph - 0.01 in Snow Light Snow
2:09 PM 14.0 °F 0.5 °F 9.0 °F 80% 29.92 in 1.0 mi NE 11.5 mph 19.6 mph 0.00 in Snow Light Snow
2:34 PM 14.0 °F -0.2 °F 9.0 °F 80% 29.92 in 0.8 mi NE 12.7 mph 19.6 mph 0.00 in Snow Light Snow
2:51 PM 12.2 °F -1.8 °F 8.6 °F 85% 29.92 in 1.0 mi NE 11.5 mph - 0.00 in Snow Light Snow
2:54 PM 12.9 °F -1.6 °F 8.1 °F 81% 29.94 in 1.0 mi NE 12.7 mph - 0.00 in Snow Light Snow
3:14 PM 12.9 °F -1.6 °F 8.1 °F 81% 29.92 in 0.8 mi NE 12.7 mph - 0.00 in Snow Light Snow
3:37 PM 12.9 °F -0.9 °F 8.1 °F 81% 29.91 in 1.0 mi NE 11.5 mph - 0.00 in Snow Light Snow
3:54 PM 12.0 °F -2.0 °F 7.0 °F 80% 29.93 in 1.0 mi NE 11.5 mph - 0.00 in Snow Light Snow
4:10 PM 12.0 °F -3.4 °F 7.0 °F 80% 29.90 in 0.8 mi NE 13.8 mph 20.7 mph 0.00 in Snow Light Snow
4:24 PM 12.0 °F -0.4 °F 7.0 °F 80% 29.89 in 0.8 mi NE 9.2 mph - 0.01 in Snow Light Snow
4:50 PM 12.2 °F -4.3 °F 6.8 °F 79% 29.88 in 0.8 mi NE 16.1 mph 24.2 mph 0.02 in Snow Light Snow
4:54 PM 12.0 °F -4.0 °F 7.0 °F 80% 29.90 in 0.8 mi NE 15.0 mph 24.2 mph 0.02 in Snow Light Snow
5:54 PM 10.9 °F -2.6 °F 6.1 °F 81% 29.88 in 0.5 mi NE 10.4 mph - 0.02 in Snow Snow
6:54 PM 10.9 °F -2.6 °F 6.1 °F 81% 29.86 in 0.8 mi NE 10.4 mph - 0.02 in Snow Light Snow
7:34 PM 10.9 °F -1.8 °F 6.1 °F 81% 29.82 in 0.8 mi NE 9.2 mph - 0.02 in Snow Light Snow
7:52 PM 10.4 °F -5.4 °F 6.8 °F 85% 29.82 in 1.0 mi NE 13.8 mph - 0.03 in Snow Light Snow
7:54 PM 10.0 °F -4.5 °F 6.1 °F 84% 29.84 in 1.0 mi NE 11.5 mph - 0.03 in Snow Light Snow
8:08 PM 10.0 °F -4.5 °F 5.0 °F 80% 29.81 in 1.2 mi NE 11.5 mph - 0.00 in Snow Light Snow
8:54 PM 10.0 °F -7.6 °F 5.0 °F 80% 29.81 in 1.0 mi NE 17.3 mph - 0.00 in Snow Light Snow
9:03 PM 10.0 °F -7.1 °F 5.0 °F 80% 29.78 in 1.0 mi NE 16.1 mph 23.0 mph 0.00 in Snow Light Snow
9:10 PM 10.0 °F -7.1 °F 5.0 °F 80% 29.78 in 1.2 mi NE 16.1 mph - 0.00 in Snow Light Snow
9:54 PM 10.0 °F -5.9 °F 5.0 °F 80% 29.80 in 1.2 mi NE 13.8 mph - 0.01 in Snow Light Snow
10:34 PM 10.0 °F -8.1 °F 3.9 °F 76% 29.76 in 1.0 mi NE 18.4 mph 23.0 mph 0.00 in Snow Light Snow
10:45 PM 10.0 °F -6.5 °F 3.9 °F 76% 29.76 in 1.0 mi NE 15.0 mph 26.5 mph 0.00 in Snow Light Snow
10:54 PM 9.0 °F -9.0 °F 3.9 °F 80% 29.78 in 1.0 mi NNE 17.3 mph - 0.00 in Snow Light Snow
11:25 PM 9.0 °F -7.3 °F 3.9 °F 80% 29.75 in 1.2 mi NE 13.8 mph - 0.01 in Snow Light Snow
11:32 PM 9.0 °F -9.5 °F 3.9 °F 80% 29.75 in 1.0 mi NE 18.4 mph 24.2 mph 0.01 in Snow Light Snow
11:44 PM 9.0 °F -9.0 °F 3.9 °F 80% 29.76 in 1.0 mi NNE 17.3 mph 25.3 mph 0.01 in Snow Light Snow
11:52 PM 8.6 °F -8.9 °F 3.2 °F 79% 29.75 in 1.0 mi NNE 16.1 mph 23.0 mph 0.01 in Snow Light Snow
11:54 PM 9.0 °F -9.5 °F 3.9 °F 80% 29.77 in 1.0 mi NNE 18.4 mph 24.2 mph 0.01 in Snow Light Snow